{"data":{"norad_id":63604,"epoch":"2026-05-25T04:26:06.022752Z","epoch_age_seconds":49320,"freshness":"FRESH","line1":"1 63604U 25078F   26145.18479193  .00000006  00000+0  70862-4 0  9993","line2":"2 63604  99.6903 152.7442 0001234  93.1254 267.0026 13.57239318 54415","mean_motion":13.57239318,"eccentricity":0.0001234,"inclination_deg":99.6903,"raan_deg":152.7442,"arg_perigee_deg":93.1254,"mean_anomaly_deg":267.0026,"bstar":7.0862e-5,"rev_number":5441,"period_min":106.09772211153,"perigee_km":1044.8259217829,"apogee_km":1046.6581351271,"semimajor_km":7423.879028455,"source":"CELESTRAK","updated_at":"2026-05-25T13:38:03.846409Z"}}